Weather History for Huron, SD

Change the Weather History Date:

Monday, November 12, 2012

  Actual Average Record
Temperature  
Mean Temperature 23 °F 35 °F  
Max Temperature 31 °F 45 °F 71 °F (1887)
Min Temperature 15 °F 24 °F -6 °F (1986)
Degree Days  
Heating Degree Days 42 30  
Month to date heating degree days 351 326  
Since 1 July heating degree days 1104 1056  
Cooling Degree Days 0 0  
Month to date cooling degree days 0 0  
Year to date cooling degree days 1083 742  
Moisture  
Dew Point 13 °F    
Average Humidity 64    
Maximum Humidity 84    
Minimum Humidity 43    
Precipitation  
Precipitation 0.01 in 0.03 in 1.29 in (1993)
Month to date precipitation 0.17 0.41  
Year to date precipitation 18.53 21.92  
Snow  
Snow 0.00 in 0.20 in 5.00 in (1922)
Month to date snowfall T 2.0  
Since 1 July snowfall 1.0 3.1  
Since 1 September snowfall 1.0 3.1  
Snow Depth 0.00 in    
Sea Level Pressure  
Sea Level Pressure 30.22 in    
Wind  
Wind Speed 14 mph (West)    
Max Wind Speed 25 mph    
Max Gust Speed 31 mph    
Visibility 8 miles    
Events Snow    
T = Trace of Precipitation, MM = Missing Value Source: NWS Daily Summary

Daily Weather History Graph

Daily Weather History Graph

Search for Another Location

Airport:

Trip Planner

Search our weather history database for the weather conditions in past years. The results will help you decide how hot, cold, wet, or windy it might be!

Date:

Astronomy

Nov. 12, 2012 Rise Set
Actual Time 7:25 AM CST 5:08 PM CST
Civil Twilight 6:54 AM CST 5:39 PM CST
Nautical Twilight 6:19 AM CST 6:14 PM CST
Astronomical Twilight 5:45 AM CST 6:48 PM CST
Moon 5:50 AM CST (11/12) 4:15 PM CST (11/12)
Length of Visible Light 10h 44m
Length of Day
9h 42m
Waning Crescent, 2% of the Moon is Illuminated
Nov 12
Waning Crescent
Nov 13
New
Nov 20
First Quarter
Nov 28
Full
Dec 6
Last Quarter

Hourly Weather History & Observations

Time (CST) Temp. Windchill Dew Point Humidity Pressure Visibility Wind Dir Wind Speed Gust Speed Precip Events Conditions
12:55 AM 19.9 °F 5.2 °F 10.9 °F 68% 30.11 in 10.0 mi WNW 17.3 mph 28.8 mph 0.00 in   Overcast
1:55 AM 19.9 °F 3.5 °F 12.9 °F 74% 30.10 in 6.0 mi WNW 21.9 mph - 0.00 in Snow Light Snow
2:55 AM 19.9 °F 3.5 °F 15.1 °F 81% 30.11 in 2.5 mi WNW 21.9 mph 27.6 mph 0.00 in Snow Light Snow
3:05 AM 19.4 °F 4.1 °F 15.8 °F 86% 30.05 in 4.0 mi WNW 18.4 mph 26.5 mph 0.00 in Snow Light Snow
3:17 AM 19.4 °F 4.5 °F 15.8 °F 86% 30.05 in 2.0 mi West 17.3 mph - 0.00 in Snow Light Snow
3:44 AM 19.4 °F 3.6 °F 15.8 °F 86% 30.04 in 3.0 mi WNW 19.6 mph 26.5 mph 0.00 in Snow Light Snow
3:55 AM 19.9 °F 4.3 °F 16.0 °F 85% 30.11 in 8.0 mi WNW 19.6 mph 26.5 mph 0.00 in Snow Light Snow
4:55 AM 19.0 °F 2.7 °F 12.9 °F 77% 30.13 in 10.0 mi WNW 20.7 mph 26.5 mph 0.00 in   Mostly Cloudy
5:55 AM 17.1 °F 2.0 °F 10.0 °F 74% 30.15 in 10.0 mi WNW 16.1 mph 25.3 mph 0.01 in   Clear
6:55 AM 16.0 °F 0.1 °F 9.0 °F 74% 30.17 in 10.0 mi WNW 17.3 mph 23.0 mph N/A   Clear
7:55 AM 16.0 °F 1.1 °F 8.1 °F 71% 30.20 in 10.0 mi WNW 15.0 mph - N/A   Clear
8:55 AM 18.0 °F 0.6 °F 8.1 °F 65% 30.22 in 10.0 mi WNW 23.0 mph 28.8 mph N/A   Clear
9:55 AM 21.0 °F 5.7 °F 9.0 °F 60% 30.24 in 10.0 mi WNW 19.6 mph 27.6 mph N/A   Clear
10:55 AM 23.0 °F 8.0 °F 10.0 °F 58% 30.25 in 10.0 mi WNW 20.7 mph 26.5 mph N/A   Clear
11:55 AM 25.0 °F 10.9 °F 10.0 °F 53% 30.26 in 10.0 mi WNW 19.6 mph - N/A   Clear
12:55 PM 28.9 °F 17.3 °F 12.0 °F 49% 30.26 in 10.0 mi WNW 16.1 mph - N/A   Clear
1:55 PM 30.0 °F 18.7 °F 10.9 °F 45% 30.26 in 10.0 mi WNW 16.1 mph - N/A   Clear
2:55 PM 30.9 °F 20.2 °F 12.9 °F 47% 30.27 in 10.0 mi WNW 15.0 mph - N/A   Clear
3:55 PM 30.0 °F 19.5 °F 15.1 °F 54% 30.28 in 10.0 mi WNW 13.8 mph - N/A   Clear
4:55 PM 26.1 °F 20.5 °F 15.1 °F 63% 30.31 in 10.0 mi WNW 4.6 mph - N/A   Clear
5:55 PM 24.1 °F 17.0 °F 15.1 °F 69% 30.32 in 10.0 mi WSW 5.8 mph - N/A   Clear
6:55 PM 21.9 °F - 14.0 °F 72% 30.31 in 10.0 mi Calm Calm - N/A   Clear
7:55 PM 21.0 °F 13.4 °F 14.0 °F 74% 30.32 in 10.0 mi SSW 5.8 mph - N/A   Clear
8:55 PM 19.9 °F 14.9 °F 14.0 °F 78% 30.32 in 5.0 mi South 3.5 mph - N/A   Haze
9:55 PM 19.0 °F 13.9 °F 12.9 °F 77% 30.32 in 10.0 mi SSE 3.5 mph - N/A   Clear
10:55 PM 19.9 °F 11.1 °F 14.0 °F 78% 30.32 in 10.0 mi South 6.9 mph - N/A   Clear
11:55 PM 19.0 °F 10.0 °F 14.0 °F 81% 30.31 in 10.0 mi South 6.9 mph - N/A   Clear